Weather History for KBRO - October, 2013

Change the Weather History Date:

Sunday, October 6, 2013

  Actual Average Record
Temperature  
Mean Temperature 72 °F 78 °F  
Max Temperature 77 °F 87 °F 96 °F (1894)
Min Temperature 66 °F 69 °F 54 °F (1880)
Degree Days  
Heating Degree Days 0 0  
Month to date heating degree days 0 0  
Since 1 July heating degree days 0 0  
Cooling Degree Days 7 13  
Month to date cooling degree days 103 82  
Year to date cooling degree days 3673 3493  
Growing Degree Days 20 (Base 50)    
Moisture  
Dew Point 66 °F    
Average Humidity 84    
Maximum Humidity 100    
Minimum Humidity 68    
Precipitation  
Precipitation T in 0.14 in 3.33 in (1930)
Month to date precipitation 0.24 0.92  
Year to date precipitation 22.17 21.65  
Sea Level Pressure  
Sea Level Pressure 30.02 in    
Wind  
Wind Speed 8 mph (NNW)    
Max Wind Speed 20 mph    
Max Gust Speed 28 mph    
Visibility 10 miles    
Events Rain    
T = Trace of Precipitation, MM = Missing Value Source: NWS Daily Summary

Daily Weather History Graph

Daily Weather History Graph

Search for Another Location

Airport or City:

Trip Planner

Search our weather history database for the weather conditions in past years. The results will help you decide how hot, cold, wet, or windy it might be!

Date:

Astronomy

Oct. 06, 2013 Rise Set
Actual Time 7:24 AM CDT 7:10 PM CDT
Civil Twilight 7:01 AM CDT 7:33 PM CDT
Nautical Twilight 6:34 AM CDT 8:00 PM CDT
Astronomical Twilight 6:07 AM CDT 8:27 PM CDT
Moon 8:57 AM CDT (10/6) 8:25 PM CDT (10/6)
Length of Visible Light 12h 32m
Length of Day
11h 46m
Waxing Crescent, 3% of the Moon is Illuminated
Oct 6
Waxing Crescent
Oct 11
First Quarter
Oct 18
Full
Oct 26
Last Quarter
Nov 3
New

Hourly Weather History & Observations

Time (CDT) Temp. Dew Point Humidity Pressure Visibility Wind Dir Wind Speed Gust Speed Precip Events Conditions
12:53 AM 75.9 °F 73.9 °F 94% 29.92 in 10.0 mi South 4.6 mph - N/A   Clear
1:53 AM 75.9 °F 73.9 °F 94% 29.93 in 10.0 mi Calm Calm - N/A   Clear
2:53 AM 75.9 °F 73.9 °F 94% 29.91 in 10.0 mi Calm Calm - N/A   Clear
3:53 AM 75.0 °F 73.9 °F 96% 29.91 in 10.0 mi SSE 3.5 mph - N/A   Clear
4:53 AM 75.0 °F 73.9 °F 96% 29.91 in 10.0 mi NNW 3.5 mph - N/A   Clear
5:53 AM 73.9 °F 73.9 °F 100% 29.93 in 10.0 mi Calm Calm - N/A   Clear
6:53 AM 75.0 °F 73.9 °F 96% 29.95 in 10.0 mi NNW 4.6 mph - N/A   Partly Cloudy
7:31 AM 75.2 °F 75.2 °F 100% 29.96 in 10.0 mi North 5.8 mph - N/A   Overcast
7:53 AM 75.9 °F 73.9 °F 94% 29.97 in 10.0 mi North 13.8 mph 21.9 mph 0.00 in Rain Light Rain
8:53 AM 72.0 °F 66.0 °F 81% 30.01 in 10.0 mi North 12.7 mph 24.2 mph 0.00 in   Overcast
9:53 AM 72.0 °F 62.1 °F 71% 30.04 in 10.0 mi North 12.7 mph 21.9 mph N/A   Overcast
10:53 AM 71.1 °F 61.0 °F 70% 30.06 in 10.0 mi NNW 13.8 mph 25.3 mph N/A   Overcast
11:53 AM 71.1 °F 63.0 °F 75% 30.07 in 10.0 mi North 15.0 mph 20.7 mph N/A   Overcast
12:53 PM 75.0 °F 66.0 °F 73% 30.05 in 10.0 mi North 15.0 mph 21.9 mph N/A   Overcast
1:53 PM 73.0 °F 64.9 °F 76% 30.04 in 10.0 mi North 13.8 mph 20.7 mph N/A   Overcast
2:53 PM 72.0 °F 63.0 °F 73% 30.03 in 10.0 mi North 13.8 mph 25.3 mph N/A   Overcast
3:53 PM 72.0 °F 62.1 °F 71% 30.04 in 10.0 mi NNW 11.5 mph - N/A   Overcast
4:30 PM 73.4 °F 60.8 °F 65% 30.05 in 10.0 mi NNW 16.1 mph 21.9 mph N/A   Overcast
4:53 PM 72.0 °F 60.1 °F 66% 30.06 in 10.0 mi NNW 11.5 mph - N/A   Overcast
5:01 PM 73.4 °F 60.8 °F 65% 30.06 in 10.0 mi North 10.4 mph 17.3 mph N/A   Overcast
5:25 PM 75.2 °F 60.8 °F 61% 30.05 in 10.0 mi NNW 16.1 mph 21.9 mph N/A   Overcast
5:53 PM 72.0 °F 60.1 °F 66% 30.06 in 10.0 mi NNW 11.5 mph - N/A   Overcast
6:53 PM 71.1 °F 60.1 °F 68% 30.08 in 10.0 mi NW 8.1 mph - N/A   Mostly Cloudy
7:53 PM 70.0 °F 60.1 °F 71% 30.06 in 10.0 mi North 3.5 mph - N/A   Partly Cloudy
8:53 PM 68.0 °F 61.0 °F 78% 30.08 in 10.0 mi NW 3.5 mph - N/A   Clear
9:53 PM 68.0 °F 60.1 °F 76% 30.09 in 10.0 mi WNW 4.6 mph - N/A   Clear
10:53 PM 66.9 °F 60.1 °F 79% 30.12 in 10.0 mi West 8.1 mph - N/A   Clear
11:53 PM 66.9 °F 60.1 °F 79% 30.11 in 10.0 mi West 6.9 mph - N/A   Clear